EW0642 Weather Reports


Display with metric or nautical units.
time (UTC)temp
F
wind
direction
speed
MPH
gust
MPH
rain 1hr
in
rain 24hr
in
rain mn
in
humidity
%
barometer
mb
20260506012006 76 172 4.0 12.0 0.00 0.00 0.00 39 1010.2
20260506011505 76 171 3.0 12.0 0.00 0.00 0.00 39 1010.0
20260506011005 76 167 3.0 10.0 0.00 0.00 0.00 40 1009.9
20260506010526 77 170 3.0 10.0 0.00 0.00 0.00 38 1009.9
20260506010005 77 169 3.0 11.0 0.00 0.00 0.00 38 1009.8
20260506005526 77 173 5.0 14.0 0.00 0.00 0.00 37 1009.8
20260506005026 77 178 5.0 14.0 0.00 0.00 0.00 37 1009.7
20260506004526 77 180 4.0 13.0 0.00 0.00 0.00 37 1009.7
20260506004026 77 164 3.0 9.0 0.00 0.00 0.00 38 1009.6
20260506003505 77 157 3.0 8.0 0.00 0.00 0.00 37 1009.4
20260506003005 77 161 2.0 7.0 0.00 0.00 0.00 37 1009.5
20260506002526 78 164 2.0 8.0 0.00 0.00 0.00 37 1009.4
20260506002005 78 164 2.0 11.0 0.00 0.00 0.00 36 1009.4
20260506001526 78 161 3.0 11.0 0.00 0.00 0.00 35 1009.2
20260506001005 79 164 3.0 9.0 0.00 0.00 0.00 34 1009.3
20260506000526 79 170 3.0 9.0 0.00 0.00 0.00 34 1009.3
20260506000027 79 173 3.0 12.0 0.00 0.00 0.00 34 1009.2
20260505235526 80 177 4.0 14.0 0.00 0.00 0.00 33 1009.2
20260505235006 80 178 4.0 14.0 0.00 0.00 0.00 33 1009.2
20260505234505 80 175 3.0 13.0 0.00 0.00 0.00 32 1009.1
20260505234005 80 174 3.0 9.0 0.00 0.00 0.00 32 1009.1
20260505233526 80 164 3.0 10.0 0.00 0.00 0.00 32 1009.0
20260505233026 80 169 5.0 12.0 0.00 0.00 0.00 31 1009.0
20260505232526 81 171 5.0 12.0 0.00 0.00 0.00 31 1009.0
20260505232005 81 169 5.0 12.0 0.00 0.00 0.00 31 1009.1
20260505231526 81 178 5.0 12.0 0.00 0.00 0.00 30 1009.0
20260505231005 81 174 4.0 12.0 0.00 0.00 0.00 31 1009.1
20260505230506 81 175 5.0 16.0 0.00 0.00 0.00 30 1009.1
20260505230027 82 176 5.0 16.0 0.00 0.00 0.00 30 1009.1
20260505225505 82 170 4.0 15.0 0.00 0.00 0.00 30 1009.1
20260505225006 82 169 5.0 17.0 0.00 0.00 0.00 30 1009.1
20260505224526 82 182 5.0 17.0 0.00 0.00 0.00 30 1009.0
20260505224026 82 191 4.0 17.0 0.00 0.00 0.00 30 1009.0
20260505223505 82 179 4.0 17.0 0.00 0.00 0.00 30 1009.1
20260505223005 82 175 4.0 10.0 0.00 0.00 0.00 30 1009.1
20260505222526 82 171 4.0 16.0 0.00 0.00 0.00 30 1009.1
20260505222026 82 175 5.0 16.0 0.00 0.00 0.00 29 1009.1
20260505221505 82 177 6.0 18.0 0.00 0.00 0.00 29 1009.1
20260505221005 82 178 6.0 20.0 0.00 0.00 0.00 29 1009.1
20260505220506 83 176 6.0 20.0 0.00 0.00 0.00 29 1009.1
20260505220006 83 178 6.0 15.0 0.00 0.00 0.00 28 1009.2
20260505215526 84 190 6.0 18.0 0.00 0.00 0.00 29 1009.0
20260505215005 84 188 6.0 19.0 0.00 0.00 0.00 29 1009.0
20260505214505 84 182 6.0 19.0 0.00 0.00 0.00 29 1009.0
20260505214005 84 183 6.0 18.0 0.00 0.00 0.00 29 1008.9
20260505213505 84 183 6.0 18.0 0.00 0.00 0.00 29 1008.9
20260505213026 84 194 6.0 21.0 0.00 0.00 0.00 29 1008.9
20260505212505 84 190 7.0 21.0 0.00 0.00 0.00 28 1008.8
20260505212005 84 175 7.0 18.0 0.00 0.00 0.00 29 1008.8
20260505211526 84 169 7.0 18.0 0.00 0.00 0.00 28 1008.8
20260505211005 84 169 8.0 20.0 0.00 0.00 0.00 28 1008.8
20260505210526 84 175 9.0 21.0 0.00 0.00 0.00 28 1008.6
20260505210026 85 180 8.0 21.0 0.00 0.00 0.00 28 1008.7
20260505205527 85 181 7.0 18.0 0.00 0.00 0.00 29 1008.6
20260505205005 85 179 6.0 17.0 0.00 0.00 0.00 28 1008.7
20260505204526 85 173 7.0 18.0 0.00 0.00 0.00 29 1008.7
20260505204026 85 165 8.0 18.0 0.00 0.00 0.00 28 1008.8
20260505203505 85 169 8.0 18.0 0.00 0.00 0.00 28 1008.7
20260505203026 85 173 7.0 18.0 0.00 0.00 0.00 28 1008.8
20260505202526 85 177 7.0 18.0 0.00 0.00 0.00 29 1008.7
20260505202027 85 187 7.0 21.0 0.00 0.00 0.00 29 1008.7
20260505201526 85 182 9.0 26.0 0.00 0.00 0.00 29 1008.7
20260505201026 84 181 10.0 26.0 0.00 0.00 0.00 28 1008.9
20260505200505 85 181 8.0 23.0 0.00 0.00 0.00 29 1009.1
20260505200005 85 176 6.0 22.0 0.00 0.00 0.00 29 1009.0
20260505195505 85 170 5.0 22.0 0.00 0.00 0.00 29 1009.1
20260505195027 85 175 7.0 16.0 0.00 0.00 0.00 29 1009.1
20260505194505 85 170 7.0 16.0 0.00 0.00 0.00 29 1009.1
20260505194005 85 172 7.0 24.0 0.00 0.00 0.00 29 1009.1
20260505193528 85 172 9.0 24.0 0.00 0.00 0.00 30 1009.3
20260505193026 84 162 8.0 22.0 0.00 0.00 0.00 30 1009.2
20260505192506 85 164 8.0 29.0 0.00 0.00 0.00 29 1009.4
20260505192027 85 170 8.0 29.0 0.00 0.00 0.00 29 1009.5
20260505191526 85 182 7.0 26.0 0.00 0.00 0.00 29 1009.6
20260505191005 84 185 8.0 26.0 0.00 0.00 0.00 31 1009.5
20260505190505 84 184 9.0 21.0 0.00 0.00 0.00 30 1009.7
20260505190026 84 174 8.0 21.0 0.00 0.00 0.00 30 1009.9
20260505185505 85 172 7.0 20.0 0.00 0.00 0.00 30 1010.0
20260505185005 84 186 8.0 22.0 0.00 0.00 0.00 31 1010.0
20260505184527 84 189 8.0 22.0 0.00 0.00 0.00 31 1010.2
20260505184006 85 189 7.0 20.0 0.00 0.00 0.00 32 1010.0
20260505183505 85 174 7.0 20.0 0.00 0.00 0.00 31 1010.2
20260505183027 85 171 7.0 20.0 0.00 0.00 0.00 31 1010.2
20260505182526 85 177 7.0 20.0 0.00 0.00 0.00 31 1010.2
20260505182005 85 185 7.0 18.0 0.00 0.00 0.00 32 1010.3
20260505181526 85 192 8.0 18.0 0.00 0.00 0.00 32 1010.4
20260505181005 85 190 7.0 20.0 0.00 0.00 0.00 29 1010.4
20260505180526 85 191 5.0 20.0 0.00 0.00 0.00 30 1010.3
20260505180006 85 182 6.0 17.0 0.00 0.00 0.00 33 1010.4
20260505175526 84 178 6.0 19.0 0.00 0.00 0.00 31 1010.6
20260505175026 85 168 5.0 19.0 0.00 0.00 0.00 31 1010.5
20260505174505 84 177 5.0 15.0 0.00 0.00 0.00 31 1010.6
20260505174005 84 179 5.0 18.0 0.00 0.00 0.00 31 1010.7
20260505173507 84 156 5.0 18.0 0.00 0.00 0.00 33 1010.7
20260505173026 84 155 6.0 16.0 0.00 0.00 0.00 34 1010.7
20260505172526 83 182 7.0 19.0 0.00 0.00 0.00 34 1010.8
20260505172027 83 185 7.0 19.0 0.00 0.00 0.00 35 1010.9
20260505171505 83 173 6.0 15.0 0.00 0.00 0.00 36 1010.9
20260505171005 83 169 5.0 22.0 0.00 0.00 0.00 36 1010.9
20260505170526 83 157 6.0 22.0 0.00 0.00 0.00 37 1010.9
20260505170005 83 146 5.0 14.0 0.00 0.00 0.00 37 1011.0
20260505165528 84 149 4.0 14.0 0.00 0.00 0.00 38 1011.1
20260505165005 83 173 4.0 11.0 0.00 0.00 0.00 38 1011.1
20260505164526 83 168 3.0 11.0 0.00 0.00 0.00 37 1011.2
20260505164005 82 171 4.0 13.0 0.00 0.00 0.00 37 1011.3
20260505163527 82 181 6.0 13.0 0.00 0.00 0.00 37 1011.3
20260505163006 83 163 6.0 15.0 0.00 0.00 0.00 37 1011.5
20260505162528 84 163 4.0 15.0 0.00 0.00 0.00 37 1011.5
20260505162026 84 177 3.0 9.0 0.00 0.00 0.00 38 1011.6
20260505161505 83 174 3.0 11.0 0.00 0.00 0.00 40 1011.5
20260505161005 83 175 4.0 11.0 0.00 0.00 0.00 40 1011.6
20260505160505 83 172 3.0 9.0 0.00 0.00 0.00 41 1011.6
20260505153005 80 174 4.0 11.0 0.00 0.00 0.00 42 1011.8
20260505152505 80 182 4.0 13.0 0.00 0.00 0.00 43 1011.8
20260505152026 79 182 5.0 13.0 0.00 0.00 0.00 43 1011.8
20260505151526 79 180 4.0 12.0 0.00 0.00 0.00 42 1011.9
20260505151026 79 160 3.0 10.0 0.00 0.00 0.00 44 1011.9
20260505150505 78 165 4.0 10.0 0.00 0.00 0.00 44 1011.8
20260505140505 74 216 3.0 10.0 0.00 0.00 0.00 49 1011.9
20260505125005 69 194 3.0 11.0 0.00 0.00 0.00 55 1012.2
20260505124505 68 189 5.0 16.0 0.00 0.00 0.00 56 1012.2
20260505124005 68 187 5.0 16.0 0.00 0.00 0.00 56 1012.2
20260505123526 68 183 4.0 16.0 0.00 0.00 0.00 56 1012.2
20260505123006 67 180 4.0 10.0 0.00 0.00 0.00 56 1012.1
20260505122505 67 189 4.0 9.0 0.00 0.00 0.00 57 1012.1
20260505122027 67 193 4.0 9.0 0.00 0.00 0.00 57 1012.1
20260505121505 66 190 3.0 12.0 0.00 0.00 0.00 58 1012.0
20260505121005 66 187 3.0 12.0 0.00 0.00 0.00 58 1012.0
20260505120505 65 181 4.0 12.0 0.00 0.00 0.00 59 1012.0
20260505120006 65 179 4.0 12.0 0.00 0.00 0.00 59 1012.0
20260505115526 65 195 3.0 12.0 0.00 0.00 0.00 59 1012.0
20260505115005 64 199 3.0 9.0 0.00 0.00 0.00 59 1012.0
20260505114505 64 188 4.0 9.0 0.00 0.00 0.00 60 1011.8
20260505114027 64 190 4.0 9.0 0.00 0.00 0.00 59 1011.8
20260505113526 64 184 4.0 11.0 0.00 0.00 0.00 59 1011.8
20260505113026 64 178 5.0 13.0 0.00 0.00 0.00 60 1011.8
20260505112506 64 189 4.0 13.0 0.00 0.00 0.00 60 1011.7
20260505112006 63 188 4.0 14.0 0.00 0.00 0.00 60 1011.7
20260505111526 63 185 4.0 14.0 0.00 0.00 0.00 60 1011.7
20260505111007 63 184 4.0 13.0 0.00 0.00 0.00 60 1011.6
20260505110505 63 182 5.0 11.0 0.00 0.00 0.00 60 1011.5
20260505102026 62 181 3.0 9.0 0.00 0.00 0.00 61 1011.3
20260505101526 62 181 3.0 9.0 0.00 0.00 0.00 61 1011.4
20260505101026 62 184 4.0 11.0 0.00 0.00 0.00 61 1011.3
20260505100526 62 193 4.0 11.0 0.00 0.00 0.00 61 1011.2
20260505100005 62 192 3.0 8.0 0.00 0.00 0.00 61 1011.1
20260505095506 62 185 3.0 7.0 0.00 0.00 0.00 61 1011.0
20260505095005 62 189 3.0 10.0 0.00 0.00 0.00 60 1011.0
20260505094506 62 194 3.0 10.0 0.00 0.00 0.00 61 1011.0
20260505094026 62 184 3.0 10.0 0.00 0.00 0.00 60 1011.0
20260505093505 62 180 3.0 10.0 0.00 0.00 0.00 60 1010.9
20260505093026 62 179 3.0 10.0 0.00 0.00 0.00 60 1010.9
20260505092526 62 189 4.0 15.0 0.00 0.00 0.00 60 1010.8
20260505092026 62 198 4.0 15.0 0.00 0.00 0.00 60 1010.8
20260505091505 62 195 3.0 8.0 0.00 0.00 0.00 60 1010.8
20260505091027 62 189 4.0 11.0 0.00 0.00 0.00 60 1010.8
20260505090505 62 189 3.0 11.0 0.00 0.00 0.00 61 1010.9
20260505090005 62 199 3.0 11.0 0.00 0.00 0.00 61 1010.9
20260505085505 62 197 4.0 11.0 0.00 0.00 0.00 61 1010.8
20260505085026 62 187 4.0 12.0 0.00 0.00 0.00 61 1010.9
20260505084527 62 189 4.0 12.0 0.00 0.00 0.00 61 1010.9
20260505084026 62 200 4.0 12.0 0.00 0.00 0.00 61 1010.8
20260505083507 62 204 4.0 12.0 0.00 0.00 0.00 61 1010.8
20260505083027 62 191 5.0 11.0 0.00 0.00 0.00 61 1010.8
20260505082505 62 181 5.0 11.0 0.00 0.00 0.00 61 1010.8
20260505082026 62 183 5.0 11.0 0.00 0.00 0.00 62 1010.8
20260505081526 62 189 4.0 10.0 0.00 0.00 0.00 62 1010.9
20260505081026 62 193 3.0 10.0 0.00 0.00 0.00 62 1010.8
20260505080505 62 184 4.0 11.0 0.00 0.00 0.00 63 1010.8
20260505080005 62 185 5.0 14.0 0.00 0.00 0.00 63 1010.7
20260505075526 61 186 4.0 14.0 0.00 0.00 0.00 64 1010.8
20260505075026 60 181 3.0 10.0 0.00 0.00 0.00 66 1010.9
20260505074526 60 174 4.0 11.0 0.00 0.00 0.00 67 1010.9
20260505074006 59 175 3.0 11.0 0.00 0.00 0.00 68 1010.9
20260505073505 58 173 2.0 8.0 0.00 0.00 0.00 71 1010.9
20260505073006 58 170 1.0 10.0 0.00 0.00 0.00 72 1010.8
20260505072526 58 160 1.0 10.0 0.00 0.00 0.00 74 1010.9
20260505072005 57 147 1.0 4.0 0.00 0.00 0.00 74 1010.9
20260505071527 57 129 1.0 4.0 0.00 0.00 0.00 75 1010.8
20260505071005 57 121 1.0 4.0 0.00 0.00 0.00 75 1010.8
20260505070505 57 109 0.0 1.0 0.00 0.00 0.00 75 1010.7
20260505070027 57 117 0.0 3.0 0.00 0.00 0.00 75 1010.7
20260505065526 57 128 1.0 3.0 0.00 0.00 0.00 74 1010.7
20260505065026 58 139 0.0 1.0 0.00 0.00 0.00 74 1010.7
20260505064526 58 144 0.0 1.0 0.00 0.00 0.00 73 1010.8
20260505064026 58 144 0.0 1.0 0.00 0.00 0.00 73 1010.7
20260505063505 58 128 0.0 1.0 0.00 0.00 0.00 72 1010.8
20260505063005 58 124 0.0 2.0 0.00 0.00 0.00 72 1010.9
20260505062526 58 123 1.0 2.0 0.00 0.00 0.00 72 1010.8
20260505062026 58 123 1.0 2.0 0.00 0.00 0.00 72 1010.9
20260505061526 59 126 1.0 2.0 0.00 0.00 0.00 71 1010.7
20260505061026 59 142 0.0 1.0 0.00 0.00 0.00 70 1010.7
20260505060526 59 142 0.0 1.0 0.00 0.00 0.00 70 1010.6
20260505060005 59 142 0.0 1.0 0.00 0.00 0.00 70 1010.7
20260505055526 59 142 0.0 1.0 0.00 0.00 0.00 70 1010.6
20260505055006 59 142 0.0 1.0 0.00 0.00 0.00 70 1010.7
20260505054526 59 137 0.0 1.0 0.00 0.00 0.00 70 1010.7
20260505054026 59 136 0.0 4.0 0.00 0.00 0.00 70 1010.8
20260505053526 59 137 0.0 4.0 0.00 0.00 0.00 70 1010.7
20260505053026 59 122 0.0 1.0 0.00 0.00 0.00 71 1010.8
20260505052505 59 143 0.0 4.0 0.00 0.00 0.00 72 1010.9
20260505052026 59 145 1.0 4.0 0.00 0.00 0.00 73 1011.0
20260505051506 59 134 0.0 3.0 0.00 0.00 0.00 73 1010.8
20260505051005 59 148 0.0 2.0 0.00 0.00 0.00 74 1010.9
20260505050526 59 154 1.0 4.0 0.00 0.00 0.00 74 1010.9
20260505041526 60 0 0.0 0.0 0.00 0.00 0.00 73 1010.8
20260505041005 61 0 0.0 0.0 0.00 0.00 0.00 72 1010.8
20260505040526 61 0 0.0 0.0 0.00 0.00 0.00 72 1010.7
20260505040005 61 0 0.0 0.0 0.00 0.00 0.00 73 1010.7
20260505035505 62 0 0.0 0.0 0.00 0.00 0.00 72 1010.6
20260505035026 62 0 0.0 0.0 0.00 0.00 0.00 72 1010.7
20260505034526 62 0 0.0 0.0 0.00 0.00 0.00 72 1010.7
20260505034026 62 179 1.0 4.0 0.00 0.00 0.00 72 1010.6
20260505033527 62 176 1.0 5.0 0.00 0.00 0.00 71 1010.6
20260505033005 62 163 1.0 5.0 0.00 0.00 0.00 71 1010.6
20260505032505 62 160 1.0 5.0 0.00 0.00 0.00 71 1010.6
20260505032006 63 172 1.0 6.0 0.00 0.00 0.00 70 1010.6
20260505031505 63 165 2.0 6.0 0.00 0.00 0.00 71 1010.6
20260505031027 63 164 2.0 8.0 0.00 0.00 0.00 70 1010.6
20260505030505 63 176 2.0 8.0 0.00 0.00 0.00 70 1010.6
20260505030026 63 173 2.0 7.0 0.00 0.00 0.00 70 1010.7
20260505025505 63 170 2.0 5.0 0.00 0.00 0.00 69 1010.7
20260505025005 63 165 2.0 6.0 0.00 0.00 0.00 68 1010.7
20260505024526 63 153 1.0 6.0 0.00 0.00 0.00 67 1010.7
20260505024026 64 132 1.0 5.0 0.00 0.00 0.00 66 1010.7
20260505023505 64 124 1.0 3.0 0.00 0.00 0.00 65 1010.6
20260505023005 64 138 0.0 3.0 0.00 0.00 0.00 64 1010.6
20260505022526 64 148 0.0 3.0 0.00 0.00 0.00 63 1010.7
20260505022005 64 135 1.0 3.0 0.00 0.00 0.00 62 1010.6
20260505021526 64 133 1.0 5.0 0.00 0.00 0.00 62 1010.6
20260505021005 64 156 1.0 5.0 0.00 0.00 0.00 61 1010.6
20260505020526 64 154 2.0 6.0 0.00 0.00 0.00 62 1010.6
20260505020005 64 140 1.0 6.0 0.00 0.00 0.00 61 1010.6
20260505015526 64 123 1.0 4.0 0.00 0.00 0.00 61 1010.5
20260505015027 64 125 1.0 4.0 0.00 0.00 0.00 62 1010.3
20260505014506 64 158 1.0 5.0 0.00 0.00 0.00 63 1010.2
20260505014005 64 171 1.0 5.0 0.00 0.00 0.00 63 1010.4
20260505013526 64 169 1.0 5.0 0.00 0.00 0.00 64 1010.5
20260505013025 64 175 1.0 5.0 0.00 0.00 0.00 64 1010.4
20260505012526 64 170 1.0 5.0 0.00 0.00 0.00 64 1010.5